Hourly Data Report for October 26, 2015

All times are specified in Local Standard Time (LST). Add 1 hour to adjust for Daylight Saving Time where and when it is observed.

POND INLET A
NUNAVUT

72°41'22.000" N
77°58'08.000" W
61.60 m
2403206
71095
YIO

Download Data

Hourly Data (October 2015)
Hourly Data Report for October 26, 2015
Temp Definition
°C
Dew Point Temp Definition
°C
Rel Hum Definition
%
Wind Dir Definition
10's deg

Wind Spd Definition
km/h
Visibility Definition
km
Stn Press Definition
kPa
Hmdx Definition


Wind Chill Definition


Weather Definition


TIME
00:00 Legend Double Dagger -12.8 -15.9 78 15 26 16.1 98.20   -23 LegendNANA
01:00 Legend Double Dagger -13.4 -16.2 80 16 30 16.1 98.17   -24 LegendNANA
02:00 Legend Double Dagger -12.8 -15.1 83 16 26 16.1 98.16   -23 LegendNANA
03:00 Legend Double Dagger -12.8 -15.4 81 16 26 16.1 98.13   -23 LegendNANA
04:00 Legend Double Dagger -11.5 -14.3 80 17 21 16.1 98.11   -20 LegendNANA
05:00 Legend Double Dagger -10.9 -13.5 81 17 30 16.1 98.05   -21 Snow
06:00 Legend Double Dagger -10.6 -12.5 86 16 24 4.0 98.01   -19 Snow
07:00 Legend Double Dagger -10.1 -11.9 87 16 26 2.8 97.98   -19 Snow
08:00 Legend Double Dagger -9.7 -11.3 88 16 24 6.4 97.95   -18 Snow
09:00 Legend Double Dagger -9.4 -10.9 89 16 21 2.8 97.93   -17 Snow
10:00 Legend Double Dagger -9.5 -11.0 89 17 21 2.8 97.93   -17 Snow
11:00 Legend Double Dagger -9.1 -10.6 89 16 24 2.4 97.93   -17 Snow
12:00 Legend Double Dagger -8.9 -10.4 89 16 18 4.0 97.95   -16 Snow
13:00 Legend Double Dagger -9.5 -11.0 89 15 22 14.5 97.95   -18 Snow
14:00 Legend Double Dagger -8.3 -10.1 87 14 18 16.1 98.00   -15 Snow
15:00 Legend Double Dagger -8.7 -10.2 89 15 21 16.1 98.05   -16 Snow
16:00 Legend Double Dagger -7.7 -9.2 89 16 17 16.1 98.10   -14 LegendNANA
17:00 Legend Double Dagger -7.3 -8.5 91 19 15 16.1 98.16   -13 Snow
18:00 Legend Double Dagger -6.6 -8.3 88 15 11 16.1 98.20   -12 LegendNANA
19:00 Legend Double Dagger -6.7 -9.1 83 20 8 16.1 98.27   -11 LegendNANA
20:00 Legend Double Dagger -4.6 -9.2 71 LegendMM 5 16.1 98.35   -7 LegendNANA
21:00 Legend Double Dagger -3.7 -8.7 69 35 18 16.1 98.38   -10 LegendNANA
22:00 Legend Double Dagger -4.0 -9.3 67 6 15 16.1 98.41   -9 LegendNANA
23:00 Legend Double Dagger -4.0 -9.8 64 11 9 16.1 98.47   -8 LegendNANA

Notes on Data Quality.

Legend

  • E = Estimated
  • M = Missing
  • NA = Not Available
  • ‡ = Partner data that is not subject to review by the National Climate Archives
Date modified: